Location: Newark
(55.2831°N, 38.7366°E)
Time: 23:41:27
(UTC+00:00)

OTV 5 (USA 277) - Visible Passes

Search period start: 13 October 2019 00:00
Search period end: 23 October 2019 00:00
Orbit: 310 x 324 km, 54.5° (Epoch: 08 October)

Date Brightness Start Highest point End Pass type
(mag) Time Alt. Az. Time Alt. Az. Time Alt. Az.
13 Oct ? 01:53:54 76° SSW 01:53:57 77° S 01:56:42 10° E visible
14 Oct ? 02:08:02 52° WSW 02:08:30 66° S 02:11:13 10° ESE visible
15 Oct ? 00:51:19 12° E 00:51:19 12° E 00:51:32 10° E visible
15 Oct ? 02:22:12 34° WSW 02:23:00 47° SSW 02:25:39 10° ESE visible
16 Oct ? 01:05:32 15° ESE 01:05:32 15° ESE 01:06:05 10° ESE visible
16 Oct ? 02:36:26 23° WSW 02:37:27 30° SSW 02:39:54 10° SE visible
17 Oct ? 01:19:50 17° ESE 01:19:50 17° ESE 01:20:34 10° ESE visible
17 Oct ? 02:50:44 15° WSW 02:51:48 18° SW 02:53:47 10° SSE visible
18 Oct ? 01:34:13 16° SE 01:34:13 16° SE 01:34:56 10° SE visible
18 Oct ? 03:05:54 10° SW 03:06:03 10° SW 03:06:12 10° SW visible
19 Oct ? 01:48:42 12° SSE 01:48:42 12° SSE 01:49:01 10° SSE visible
